Location: Montamat
(43.4852°N, 0.8444°E)
Time: 15:56:03
(UTC+00:00)

USA 290 - Pass Details

Date: 14 May 2026
Orbit: 396 x 415 km, 73.6° (Epoch: 30 October)

Event Time Altitude Azimuth Distance (km) Brightness Sun altitude
Exits shadow 22:12:10 36° 317° (NW) 646 3.7 -23.6°
Drops below altitude 10° 22:14:42 10° 6° (N) 1,433 5.7 -23.8°
Sets 22:16:48 0° 14° (NNE) 2,293 6.8 -23.9°
